CDT,Max TemperatureF,Mean TemperatureF,Min TemperatureF,Max Dew PointF,MeanDew PointF,Min DewpointF,Max Humidity, Mean Humidity, Min Humidity, Max Sea Level PressureIn, Mean Sea Level PressureIn, Min Sea Level PressureIn, Max VisibilityMiles, Mean VisibilityMiles, Min VisibilityMiles, Max Wind SpeedMPH, Mean Wind SpeedMPH, Max Gust SpeedMPH,PrecipitationIn, CloudCover, Events, WindDirDegrees
2013-4-1,42,31,20,19,17,14,84,59,34,30.39,30.31,30.23,10,10,10,17,8,23,0.00,0,,357
2013-4-2,56,38,20,26,21,17,84,56,27,30.34,30.28,30.19,10,10,10,14,6,18,0.00,2,,156
2013-4-3,60,45,30,26,24,21,69,48,26,30.30,30.24,30.16,10,10,10,25,16,31,0.00,0,,179
2013-4-4,62,48,34,32,25,16,82,50,17,30.17,30.13,30.09,10,10,10,24,12,31,T,1,,327
2013-4-5,70,50,30,38,31,26,85,54,23,30.16,29.94,29.63,10,10,10,31,17,39,0.00,1,,139
2013-4-6,72,59,45,44,39,34,89,59,28,29.78,29.65,29.55,10,10,10,30,14,39,T,2,Rain,286
2013-4-7,69,53,36,51,41,34,93,67,40,29.82,29.74,29.62,10,9,2,20,7,23,0.03,3,Rain,116
2013-4-8,75,57,39,53,47,39,100,83,65,29.75,29.66,29.62,10,8,2,29,9,36,0.36,4,Rain-Thunderstorm,76
2013-4-9,46,37,27,46,31,24,96,91,85,30.09,29.96,29.87,10,4,1,37,21,46,1.75,8,Rain-Snow-Thunderstorm,1
2013-4-10,31,29,27,29,27,25,100,93,85,30.09,29.96,29.83,10,3,1,25,14,32,0.27,8,Rain-Snow,337
2013-4-11,34,31,27,28,26,25,92,85,78,29.86,29.74,29.63,10,6,1,23,14,29,0.02,8,Snow,307
2013-4-12,37,33,28,27,26,24,92,81,69,30.04,29.91,29.78,10,10,10,23,14,30,0.00,7,,308
2013-4-13,51,39,27,38,32,24,92,77,61,30.04,29.87,29.58,10,10,10,31,12,38,T,4,,167
2013-4-14,58,47,36,45,40,30,96,72,47,29.69,29.47,29.32,10,9,5,29,15,38,0.19,4,Rain,238
2013-4-15,49,40,30,29,25,20,75,60,45,30.14,29.91,29.70,10,10,10,25,12,32,0.00,3,,301
2013-4-16,50,42,33,30,27,25,82,62,42,30.27,30.20,30.14,10,10,10,18,11,28,0.00,5,,21
2013-4-17,39,36,32,37,33,30,100,85,70,30.22,30.00,29.87,10,5,1,30,17,37,0.36,8,Rain-Snow,17
2013-4-18,32,30,28,30,27,23,92,82,72,29.97,29.87,29.79,10,4,0,35,24,43,0.17,8,Fog-Snow,326
2013-4-19,45,36,26,23,20,18,75,57,39,30.14,30.01,29.93,10,10,10,26,14,32,0.00,1,,313
2013-4-20,44,34,23,25,22,20,88,66,43,30.26,30.19,30.13,10,10,10,22,8,26,0.00,4,,116
2013-4-21,60,45,30,48,36,25,89,68,47,30.17,30.08,30.03,10,10,10,25,11,31,0.01,4,Rain,143
2013-4-22,41,35,29,37,31,25,100,89,78,30.33,30.13,30.05,10,6,0,28,16,36,0.54,8,Fog-Rain-Snow,8
2013-4-23,34,29,24,26,21,18,85,72,59,30.32,30.28,30.23,10,10,10,23,14,32,0.00,2,,333
2013-4-24,57,40,22,34,25,17,84,58,32,30.24,30.16,30.06,10,10,10,32,11,39,T,1,,262
2013-4-25,72,49,26,36,30,23,85,54,23,30.24,30.11,29.92,10,10,10,29,15,38,0.00,0,,198
2013-4-26,76,61,46,38,34,28,71,45,18,30.16,30.03,29.94,10,10,10,26,11,33,0.00,0,,57
2013-4-27,78,58,37,50,41,34,100,60,20,30.14,30.04,29.88,10,7,0,20,7,25,0.00,0,Fog,181
2013-4-28,86,68,50,49,43,34,86,51,16,29.89,29.76,29.63,10,10,10,30,12,37,0.00,0,,192
2013-4-29,82,66,50,48,42,37,74,49,23,29.81,29.65,29.42,10,10,10,18,11,23,0.00,0,,127
2013-4-30,71,60,48,54,40,18,67,43,19,30.03,29.71,29.39,10,10,7,28,16,35,0.14,3,Rain-Thunderstorm,352